Regional Weather Roundup
Issued by NWS

Home | Current Version | Previous Version | Graphics & Text | Print | Product List | Glossary Off
Versions: 1 2 3 4 5 6 7 8 9 10 11 12 13 14 15 16 17 18 19 20 21 22 23 24 25 26 27 28 29 30 31 32 33 34 35 36 37 38 39 40 41 42 43 44 45 46 47 48 49 50

000
ASUS43 KMKX 202121
RWRWI

WISCONSIN REGIONAL WEATHER ROUNDUP
NATIONAL WEATHER SERVICE MILWAUKEE/SULLIVAN WI
400 PM CDT THU JUL 20 2017

NOTE: "FAIR" INDICATES FEW OR NO CLOUDS BELOW 12,000 FEET WITH NO
SIGNIFICANT WEATHER AND/OR OBSTRUCTIONS TO VISIBILITY.

WIZ001-002-006>008-014>016-023>028-202200-
NORTHWEST WISCONSIN

CITY           SKY/WX    TMP DP  RH WIND       PRES   REMARKS
SUPERIOR ARPT  NOT AVBL
ASHLAND        SUNNY     84  64  50 W5        29.98S HX  85
HAYWARD        SUNNY     84  58  40 VRB6      30.01R HX  83
SIREN          SUNNY     85  61  44 W7        30.01S HX  85
CUMBERLAND     SUNNY     81  63  54 SW8       30.02S HX  82
RICE LAKE      SUNNY     84  64  49 W7        30.02F HX  85
CHETEK         SUNNY     84  68  57 MISG      30.01S HX  87
LADYSMITH      SUNNY     86  61  43 W9        30.02S HX  86
EAU CLAIRE     CLOUDY    86  66  51 W10       30.00S HX  88
MENOMONIE      SUNNY     85  68  56 W8        30.01F HX  88
NEW RICHMOND   SUNNY     83  65  54 W5        30.03S HX  85
OSCEOLA        MOSUNNY   85  67  54 W7        30.04F HX  88
$$

WIZ003>005-009-010-017-018-202200-
NORTH CENTRAL WISCONSIN

CITY           SKY/WX    TMP DP  RH WIND       PRES   REMARKS
MANITOWISH WTR SUNNY     83  58  42 NW10      30.00S HX  82
ARBOR VITAE    SUNNY     85  56  37 NW7       29.99S HX  83
WOODRUFF       SUNNY     85  56  37 NW7       29.99S HX  83
RHINELANDER    SUNNY     85  63  47 W10       30.01R HX  86
EAGLE RIVER    SUNNY     84  50  30 NW13G20   29.99R HX  82
LAND O LAKES   SUNNY     83  52  34 NW6G17    30.01R HX  82
PHILLIPS       SUNNY     82  61  47 NW6       30.00S HX  83
TOMAHAWK         N/A     83  60  46 NW8       30.00F HX  83
MEDFORD        CLOUDY    82  63  52 W10       30.01S HX  83
MERRILL        SUNNY     84  64  51 NW8       30.00R HX  86
$$

WIZ029-030-035-036-043>047-202200-
CENTRAL WISCONSIN

CITY           SKY/WX    TMP DP  RH WIND       PRES   REMARKS
WAUSAU         SUNNY     85  62  46 W9        29.97F HX  85
MOSINEE        MOSUNNY   84  64  51 NW13G25   30.00S HX  86
MARSHFIELD     SUNNY     83  66  56 W12       30.00F HX  85
STEVENS POINT  SUNNY     83  64  52 NW8       29.99S HX  85
WAUPACA        PTSUNNY   88  62  42 NW13      29.96F HX  89
WAUTOMA        NOT AVBL
WISC RAPIDS    MOSUNNY   87  68  52 NW10      29.99F HX  90
CAMP DOUGLAS   PTSUNNY   84  73  70 NW9       29.99R HX  91
$$

WIZ011>013-019>022-031-037>040-048>050-202200-
NORTHEAST WISCONSIN

CITY           SKY/WX    TMP DP  RH WIND       PRES   REMARKS
ANTIGO         SUNNY     83  61  48 NW7G18    30.00S HX  83
SHAWANO        MOSUNNY   88  59  37 NW9       29.94S HX  87
OCONTO         SUNNY     86  65  49 NW7       29.92S HX  88
STURGEON BAY     N/A     83  68  60 NW7       29.94S HX  86
GREEN BAY      SUNNY     86  72  62 NW8       29.94S HX  92
MANITOWOC      MOSUNNY   84  67  56 NW8       29.95R HX  86
APPLETON       MOSUNNY   82  63  51 W12       29.95S HX  83
CLINTONVILLE   SUNNY     86  61  42 W9        29.95S HX  86
OSHKOSH        SUNNY     85  69  58 N12       29.95S HX  89
$$

WIZ032>034-041-042-053>061-202200-
SOUTHWEST WISCONSIN

CITY           SKY/WX    TMP DP  RH WIND       PRES   REMARKS
LA CROSSE      PTSUNNY   87  72  60 N8        29.98S HX  93
SPARTA         MOSUNNY   82  70  66 NW7       30.01S HX  86
VIROQUA        PTSUNNY   83  72  70 N6        30.02S HX  88
BOSCOBEL       CLOUDY    90  72  55 N6        29.97S HX  97
PRAIRIE DU CHI CLOUDY    86  68  55 N3        29.97F HX  89
PLATTEVILLE    MOSUNNY   83  77  80 N5        30.00S HX  93
$$

WIZ056-057-062-063-064-067-068-202200-
SOUTH CENTRAL WISCONSIN

CITY           SKY/WX    TMP DP  RH WIND       PRES   REMARKS
REEDSBURG      SUNNY     86  72  62 NW7       29.97F HX  92
BARABOO/DELLS  SUNNY     89  65  45 NW8       29.98S HX  90
LONE ROCK      MOSUNNY   88  70  55 N6        29.96F HX  93
MINERAL POINT  CLOUDY    82  73  74 NW3       30.00F HX  88
MADISON        PTSUNNY   85  71  63 NW9       29.96F HX  90
MIDDLETON      SUNNY     87  71  59 N7        29.98S HX  93
WATERTOWN      MOSUNNY   85  74  71 NW9       29.97S HX  92
MONROE         CLOUDY    82  72  69 NW3       29.98F HX  87
JANESVILLE     PTSUNNY   86  73  66 NW6       29.96R HX  93
$$

WIZ051-052-058>065-066-070>072-202200-
SOUTHEAST WISCONSIN

CITY           SKY/WX    TMP DP  RH WIND       PRES   REMARKS
MILWAUKEE      MOSUNNY   79  70  74 SE7       29.96S HX  82
WAUKESHA       MOSUNNY   82  70  65 NW9       29.98S HX  86
MILWAUKEE/TIMM MOSUNNY   84  66  54 NW7       29.97S HX  86
RACINE         SUNNY     78  70  76 E8        29.99R HX  80
KENOSHA        MOSUNNY   80  71  74 E9        29.97R HX  84
FOND DU LAC    SUNNY     87  69  54 NW9       29.96S HX  91
SHEBOYGAN      MOSUNNY   85  71  63 W9        29.95S HX  90
WEST BEND      SUNNY     82  70  65 NW8       29.97S HX  86
JUNEAU         MOSUNNY   83  72  68 NW3       29.98F HX  88
$$

LSZ147-162-202200-
LAKE SUPERIOR

STATION/POSITION TIME  TEMP    WIND        PRES    WAVE
                       AIR SEA DIR/SP/G            HT/PER
                 (UTC) (F)     (DEG/KT/KT) (MB)    (FT/S)
W MID LAKE BUOY  2050   54 48  230/  8/ 10 1013.9F   1/ 3
DEVILS ISLAND    2100   72     230/  8/ 12 1014.0R
SAXON HARBOR     2040   82      70/  1/  2 1014.6S
$$

LMZ867-665-643>646-202200-
LAKE MICHIGAN

STATION/POSITION TIME  TEMP    WIND        PRES    WAVE
                       AIR SEA DIR/SP/G            HT/PER
                 (UTC) (F)     (DEG/KT/KT) (MB)    (FT/S)
CHAMBERS ISLAND  2040   85     300/  2/  5 1012.5S
S GREEN BAY BUOY 2100   78 74  310/  6/  8 1013.2
N MID LAKE BUOY  2050   69 66  180/  6/  6 1013.8R   2/ 6
NORTHPORT PIER   2040   83     270/  5/ 10 1012.9R
KEWAUNEE LAKESHO 2054   78     140/  5/  8 1013.4R
SHEBOYGAN LAKESH 2100   70     170/ 17/ 18 1013.3F
PORT WASHINGTON  2040   75     160/  6/  7 1015.2S
ATWATER BUOY     2009   70 69  140/  8/ 10 1015.0R
MILWAUKEE LAKESH 2100   70     150/  4/  4   N/A
S MID LAKE BUOY  2050   72 72  130/  4/  4 1014.8R   2/ 5
KENOSHA   LAKESH 2100   75     100/  2/  2 1014.2
$$

TC  - TEMPERATURE IN CELSIUS
VSB - VISIBILITY IN STATUTE MILES
WCI - WIND CHILL INDEX
HX  - HEAT INDEX





USA.gov is the U.S. government's official web portal to all federal, state and local government web resources and services.